Location: Strawberry
(45.6646°N, 111.9596°W)
Time: 23:13:44
(UTC+00:00)

Courier 1B - Pass Details

Date: 10 October 2022
Orbit: 962 x 1209 km, 28.3° (Epoch: 03 December)

Event Time Altitude Azimuth Distance (km) Brightness Sun altitude
Rises 23:18:11 0° 249° (WSW) 4,032 12.6 14.6°
Reaches altitude 10° 23:24:30 10° 211° (SSW) 2,997 11.2 13.6°
Maximum altitude 23:25:27 10° 204° (SSW) 2,964 10.9 13.4°
Drops below altitude 10° 23:26:24 10° 196° (SSW) 2,972 10.7 13.3°
Sets 23:32:28 0° 157° (SSE) 3,843 10.6 12.3°
